Flag for Mexico Weather past 2 weeks in Mexico City, Federal District, Mexico

Now
57 °F

Mostly cloudy.


Feels Like: 56 °F
Forecast: 58 / 71 °F
Wind: 6 mph from Southwest

Location: Mexico City / Licenci

Current Time: Sep 2, 2014 at 3:07:59 AM

Latest Report: Sep 2, 2014 at 2:44 AM


Visibility: 10 mi

Pressure: 30.30 "Hg

Humidity: 88%

Dew point: 54 °F

Location of Mexico CityLocation

Historic Weather in Mexico City — Graph

°F

Mexico City temperature yesterday

Maximum temperature yesterday: 75 °F (at 3:44 PM)
Minimum temperature yesterday: 59 °F (at 3:46 AM)
Average temperature yesterday: 64 °F

Past Weeks' High & Low Weather Summary

 TemperatureHumidityPressure
High79 °F (Aug 31, 3:21 PM)100% (Aug 31, 5:25 PM)30.40 "Hg (Aug 31, 5:25 PM)
Low46 °F (Aug 31, 5:25 PM)30% (Aug 27, 3:43 PM)29.66 "Hg (Sep 1, 3:44 PM)
Average63 °F67%30.17 "Hg
* Reported Aug 18 12:52 AM — Sep 2 12:46 AM, Mexico City, Weather by CustomWeather, © 2014

Note: Actual official high and low records may vary slightly from our data, if they occured in-between our weather recording intervals... More about our weather records

Advertising

Mexico City weather history for previous 24 hours

 ConditionsComfort  
Time TempWeatherWind HumidityBarometerVisibility
12:46 AM
Sep 2
59 °FMostly cloudy.6 mph82%29.83 "Hg10 mi
11:45 PM
Sep 1
61 °FPartly cloudy.No wind77%30.33 "Hg12 mi
9:45 PM59 °FMostly cloudy.3 mph88%29.83 "Hg10 mi
8:45 PM61 °FThunderstorms. Mostly cloudy.6 mph83%30.26 "Hg6 mi
8:27 PM63 °FSleet. Cloudy.N/A83%30.25 "HgN/A
8:11 PM63 °FSleet. Cloudy.N/A77%N/AN/A
7:42 PM63 °FLight rain. Mostly cloudy.9 mph73%30.22 "Hg6 mi
7:23 PM63 °FSleet. Cloudy.N/A73%N/AN/A
5:45 PM64 °FBroken clouds.9 mph78%30.17 "Hg8 mi
5:22 PM66 °FSleet. Cloudy.N/A68%N/AN/A
4:41 PM75 °FMostly cloudy.5 mph41%30.17 "Hg7 mi
3:44 PM75 °FMostly cloudy.13 mph41%29.66 "Hg7 mi
2:45 PM73 °FPartly sunny.9 mph47%30.22 "Hg7 mi
1:13 PM73 °FSleet. Cloudy.N/A50%30.27 "HgN/A
12:49 PM70 °FBroken clouds.3 mph57%29.77 "Hg6 mi
11:42 AM68 °FBroken clouds.3 mph60%30.31 "Hg6 mi
10:20 AM61 °FMore clouds than sun.3 mph77%30.31 "Hg6 mi
9:42 AM61 °FMore clouds than sun.2 mph72%29.85 "Hg7 mi
9:22 AM59 °FCloudy.2 mph77%30.32 "Hg7 mi
8:43 AM59 °FMore clouds than sun.5 mph82%30.31 "Hg7 mi
8:22 AM59 °FBroken clouds.3 mph82%30.30 "Hg7 mi
7:26 AM59 °FPartly cloudy.3 mph77%30.28 "Hg7 mi
6:48 AM59 °FPartly cloudy.9 mph77%29.81 "Hg10 mi
4:51 AM59 °FPassing clouds.5 mph77%30.27 "Hg12 mi
3:46 AM59 °FPartly cloudy.3 mph77%29.72 "Hg12 mi
Weather by CustomWeather, © 2014

See weather overviewHow to use our weather pages